Time,TemperatureF,DewpointF,PressureIn,WindDirection,WindDirectionDegrees,WindSpeedMPH,WindSpeedGustMPH,Humidity,HourlyPrecipIn,Conditions,Clouds,dailyrainin,SolarRadiationWatts/m^2,SoftwareType,DateUTC
2013-08-28 00:02:00,76.7,74.8,30.02,ENE,75,0.0,0.0,94,0.00,,,0.00,0,Wunderground v.1.15,2013-08-28 04:02:00,
2013-08-28 00:07:00,76.8,75.3,30.02,ENE,75,0.0,0.0,95,0.00,,,0.00,0,Wunderground v.1.15,2013-08-28 04:07:00,
2013-08-28 00:12:00,76.8,75.3,30.02,ENE,75,0.0,0.0,95,0.00,,,0.00,0,Wunderground v.1.15,2013-08-28 04:12:00,
2013-08-28 00:17:00,76.8,75.3,30.02,ENE,75,0.0,1.0,95,0.00,,,0.00,0,Wunderground v.1.15,2013-08-28 04:17:00,
2013-08-28 00:22:00,76.8,75.3,30.02,ENE,75,0.0,0.0,95,0.00,,,0.00,0,Wunderground v.1.15,2013-08-28 04:22:00,
2013-08-28 00:27:00,76.7,75.2,30.02,ENE,75,0.0,0.0,95,0.00,,,0.00,0,Wunderground v.1.15,2013-08-28 04:27:00,
2013-08-28 00:32:00,76.7,75.2,30.02,ENE,72,0.0,0.0,95,0.00,,,0.00,0,Wunderground v.1.15,2013-08-28 04:32:00,
2013-08-28 00:37:00,76.7,75.2,30.02,ENE,75,0.0,0.0,95,0.00,,,0.00,0,Wunderground v.1.15,2013-08-28 04:37:00,
2013-08-28 00:42:00,76.7,75.2,30.02,ENE,75,0.0,0.0,95,0.00,,,0.00,0,Wunderground v.1.15,2013-08-28 04:42:00,
2013-08-28 00:47:00,76.7,75.2,30.02,ENE,75,0.0,0.0,95,0.00,,,0.00,0,Wunderground v.1.15,2013-08-28 04:47:00,
2013-08-28 00:57:00,76.7,75.2,30.02,ENE,75,0.0,0.0,95,0.00,,,0.00,0,Wunderground v.1.15,2013-08-28 04:57:00,
2013-08-28 15:32:00,88.4,71.2,29.99,West,275,3.0,3.0,57,0.00,,,0.00,111,Wunderground v.1.15,2013-08-28 19:32:00,
2013-08-28 15:37:00,87.6,72.0,29.99,North,359,3.0,3.0,60,0.00,,,0.00,151,Wunderground v.1.15,2013-08-28 19:37:00,
2013-08-28 15:47:00,88.8,73.1,29.99,NW,322,5.0,5.0,60,0.00,,,0.00,808,Wunderground v.1.15,2013-08-28 19:47:00,
2013-08-28 15:57:00,89.7,74.0,29.99,NNW,336,3.0,8.0,60,0.00,,,0.00,799,Wunderground v.1.15,2013-08-28 19:57:00,
2013-08-28 16:02:00,89.9,72.6,29.98,SW,217,4.0,5.0,57,0.00,,,0.00,850,Wunderground v.1.15,2013-08-28 20:02:00,
2013-08-28 16:07:00,89.9,72.6,29.98,SSW,210,4.0,5.0,57,0.00,,,0.00,850,Wunderground v.1.15,2013-08-28 20:07:00,
2013-08-28 16:12:00,88.4,72.2,29.98,WSW,246,4.0,4.0,59,0.00,,,0.00,267,Wunderground v.1.15,2013-08-28 20:12:00,
2013-08-28 16:22:00,88.4,72.7,29.98,NNW,335,5.0,5.0,60,0.00,,,0.00,162,Wunderground v.1.15,2013-08-28 20:22:00,
2013-08-28 16:32:00,87.2,73.1,29.98,NNW,330,3.0,3.0,63,0.00,,,0.00,151,Wunderground v.1.15,2013-08-28 20:32:00,
2013-08-28 16:37:00,86.7,72.6,29.98,North,350,4.0,4.0,63,0.00,,,0.00,174,Wunderground v.1.15,2013-08-28 20:37:00,
2013-08-28 16:42:00,86.5,72.4,29.98,North,0,4.0,4.0,63,0.00,,,0.00,225,Wunderground v.1.15,2013-08-28 20:42:00,
2013-08-28 16:52:00,86.1,72.5,29.97,NNW,329,5.0,5.0,64,0.00,,,0.00,123,Wunderground v.1.15,2013-08-28 20:52:00,
2013-08-28 16:57:00,85.5,71.9,29.97,NW,313,4.0,6.0,64,0.00,,,0.00,141,Wunderground v.1.15,2013-08-28 20:57:00,
2013-08-28 17:02:00,85.3,72.2,29.97,North,352,4.0,4.0,65,0.00,,,0.00,134,Wunderground v.1.15,2013-08-28 21:02:00,
2013-08-28 17:12:00,85.3,72.6,29.97,NNW,333,3.0,10.0,66,0.00,,,0.00,178,Wunderground v.1.15,2013-08-28 21:12:00,
2013-08-28 17:17:00,85.7,73.0,29.97,WNW,299,4.0,10.0,66,0.00,,,0.00,165,Wunderground v.1.15,2013-08-28 21:17:00,
2013-08-28 17:22:00,85.7,72.6,29.97,West,280,5.0,5.0,65,0.00,,,0.00,141,Wunderground v.1.15,2013-08-28 21:22:00,
2013-08-28 17:32:00,85.5,72.8,29.97,NW,320,3.0,3.0,66,0.00,,,0.00,104,Wunderground v.1.15,2013-08-28 21:32:00,
2013-08-28 17:42:00,85.3,73.1,29.97,North,0,2.0,3.0,67,0.00,,,0.00,86,Wunderground v.1.15,2013-08-28 21:42:00,
2013-08-28 17:47:00,85.1,72.5,29.97,NW,323,3.0,5.0,66,0.00,,,0.00,109,Wunderground v.1.15,2013-08-28 21:47:00,
2013-08-28 17:52:00,85.3,72.6,29.97,WNW,285,3.0,6.0,66,0.00,,,0.00,424,Wunderground v.1.15,2013-08-28 21:52:00,
2013-08-28 18:02:00,87.2,73.1,29.97,North,359,4.0,4.0,63,0.00,,,0.00,391,Wunderground v.1.15,2013-08-28 22:02:00,
2013-08-28 18:07:00,87.2,72.6,29.97,North,356,4.0,4.0,62,0.00,,,0.00,364,Wunderground v.1.15,2013-08-28 22:07:00,
2013-08-28 18:17:00,87.0,72.4,29.97,WNW,282,5.0,6.0,62,0.00,,,0.00,329,Wunderground v.1.15,2013-08-28 22:17:00,
2013-08-28 18:27:00,86.3,71.7,29.96,North,350,5.0,5.0,62,0.00,,,0.00,76,Wunderground v.1.15,2013-08-28 22:27:00,
2013-08-28 18:32:00,86.1,72.0,29.97,ENE,73,4.0,8.0,63,0.00,,,0.00,84,Wunderground v.1.15,2013-08-28 22:32:00,
2013-08-28 18:37:00,85.9,72.8,29.97,ESE,123,4.0,8.0,65,0.00,,,0.00,118,Wunderground v.1.15,2013-08-28 22:37:00,
2013-08-28 18:47:00,85.5,72.8,29.97,SE,126,5.0,5.0,66,0.00,,,0.00,176,Wunderground v.1.15,2013-08-28 22:47:00,
2013-08-28 18:52:00,85.1,72.9,29.97,SE,133,6.0,6.0,67,0.00,,,0.00,100,Wunderground v.1.15,2013-08-28 22:52:00,
2013-08-28 19:02:00,84.1,72.4,29.98,ESE,120,6.0,10.0,68,0.00,,,0.00,65,Wunderground v.1.15,2013-08-28 23:02:00,
2013-08-28 19:07:00,83.8,72.5,29.98,SE,124,5.0,10.0,69,0.00,,,0.00,70,Wunderground v.1.15,2013-08-28 23:07:00,
2013-08-28 19:12:00,83.6,72.8,29.98,ESE,120,4.0,8.0,70,0.00,,,0.00,104,Wunderground v.1.15,2013-08-28 23:12:00,
2013-08-28 19:17:00,83.2,72.8,29.98,SE,136,5.0,8.0,71,0.00,,,0.00,111,Wunderground v.1.15,2013-08-28 23:17:00,
2013-08-28 19:27:00,82.8,72.4,29.98,SE,130,5.0,5.0,71,0.00,,,0.00,65,Wunderground v.1.15,2013-08-28 23:27:00,
2013-08-28 19:37:00,82.4,72.9,29.99,ENE,78,7.0,7.0,73,0.00,,,0.00,39,Wunderground v.1.15,2013-08-28 23:37:00,
2013-08-28 19:42:00,81.6,72.9,29.99,East,97,7.0,7.0,75,0.21,,,0.02,39,Wunderground v.1.15,2013-08-28 23:42:00,
2013-08-28 19:47:00,81.1,73.2,29.99,SE,134,5.0,7.0,77,0.15,,,0.03,39,Wunderground v.1.15,2013-08-28 23:47:00,
2013-08-28 19:57:00,79.9,73.2,30.00,SE,133,3.0,4.0,80,0.46,,,0.08,5,Wunderground v.1.15,2013-08-28 23:57:00,
2013-08-28 20:02:00,79.6,73.3,29.99,SE,134,2.0,2.0,81,0.11,,,0.09,0,Wunderground v.1.15,2013-08-29 00:02:00,
2013-08-28 20:12:00,78.8,73.2,30.00,SE,134,0.0,0.0,83,0.04,,,0.09,0,Wunderground v.1.15,2013-08-29 00:12:00,
2013-08-28 20:17:00,78.6,73.4,29.99,SE,134,0.0,1.0,84,0.00,,,0.10,0,Wunderground v.1.15,2013-08-29 00:17:00,
2013-08-28 20:27:00,78.1,73.2,30.00,SE,134,1.0,1.0,85,0.00,,,0.10,0,Wunderground v.1.15,2013-08-29 00:27:00,
2013-08-28 20:37:00,77.9,73.7,30.00,SE,134,0.0,1.0,87,0.00,,,0.10,0,Wunderground v.1.15,2013-08-29 00:37:00,
2013-08-28 20:42:00,77.7,73.5,30.00,SE,134,0.0,0.0,87,0.00,,,0.10,0,Wunderground v.1.15,2013-08-29 00:42:00,
2013-08-28 20:52:00,77.6,73.8,30.00,SE,134,0.0,0.0,88,0.00,,,0.10,0,Wunderground v.1.15,2013-08-29 00:52:00,
2013-08-28 21:02:00,77.6,73.8,30.00,SE,133,0.0,0.0,88,0.00,,,0.10,0,Wunderground v.1.15,2013-08-29 01:02:00,
2013-08-28 21:07:00,77.6,74.1,30.00,SE,133,0.0,0.0,89,0.00,,,0.10,0,Wunderground v.1.15,2013-08-29 01:07:00,
2013-08-28 21:17:00,77.4,73.9,30.01,SE,133,0.0,0.0,89,0.00,,,0.10,0,Wunderground v.1.15,2013-08-29 01:17:00,
2013-08-28 21:27:00,77.0,73.8,30.01,SE,133,0.0,0.0,90,0.00,,,0.10,0,Wunderground v.1.15,2013-08-29 01:27:00,
2013-08-28 21:32:00,77.0,73.8,30.01,SE,133,0.0,0.0,90,0.00,,,0.10,0,Wunderground v.1.15,2013-08-29 01:32:00,
2013-08-28 21:42:00,77.0,73.8,30.01,SE,133,0.0,0.0,90,0.00,,,0.10,0,Wunderground v.1.15,2013-08-29 01:42:00,
2013-08-28 21:47:00,77.0,73.8,30.01,SE,133,0.0,0.0,90,0.00,,,0.10,0,Wunderground v.1.15,2013-08-29 01:47:00,
2013-08-28 21:57:00,76.8,73.6,30.01,SE,133,0.0,0.0,90,0.00,,,0.10,0,Wunderground v.1.15,2013-08-29 01:57:00,
2013-08-28 22:02:00,76.7,73.5,30.01,SE,133,0.0,0.0,90,0.00,,,0.10,0,Wunderground v.1.15,2013-08-29 02:02:00,
2013-08-28 22:07:00,76.7,73.9,30.02,SE,133,0.0,0.0,91,0.00,,,0.10,0,Wunderground v.1.15,2013-08-29 02:07:00,
2013-08-28 22:17:00,76.7,73.9,30.02,SE,133,0.0,0.0,91,0.00,,,0.10,0,Wunderground v.1.15,2013-08-29 02:17:00,
2013-08-28 22:22:00,76.7,73.9,30.02,SE,133,0.0,0.0,91,0.00,,,0.10,0,Wunderground v.1.15,2013-08-29 02:22:00,
2013-08-28 22:32:00,76.8,74.0,30.02,SE,133,0.0,0.0,91,0.00,,,0.10,0,Wunderground v.1.15,2013-08-29 02:32:00,
2013-08-28 22:42:00,76.8,74.3,30.02,SE,133,0.0,0.0,92,0.00,,,0.10,0,Wunderground v.1.15,2013-08-29 02:42:00,
2013-08-28 22:47:00,76.8,74.3,30.02,SE,133,0.0,0.0,92,0.00,,,0.10,0,Wunderground v.1.15,2013-08-29 02:47:00,
2013-08-28 22:57:00,77.0,74.5,30.02,SE,133,0.0,0.0,92,0.00,,,0.10,0,Wunderground v.1.15,2013-08-29 02:57:00,
2013-08-28 23:02:00,77.2,74.7,30.02,SE,133,0.0,0.0,92,0.00,,,0.10,0,Wunderground v.1.15,2013-08-29 03:02:00,
2013-08-28 23:12:00,77.4,75.2,30.03,SE,133,0.0,0.0,93,0.00,,,0.10,0,Wunderground v.1.15,2013-08-29 03:12:00,
2013-08-28 23:22:00,77.4,75.2,30.03,SE,133,0.0,0.0,93,0.00,,,0.10,0,Wunderground v.1.15,2013-08-29 03:22:00,
2013-08-28 23:27:00,77.4,75.2,30.03,SE,133,0.0,0.0,93,0.00,,,0.10,0,Wunderground v.1.15,2013-08-29 03:27:00,
2013-08-28 23:37:00,77.2,75.0,30.03,SE,133,0.0,0.0,93,0.00,,,0.10,0,Wunderground v.1.15,2013-08-29 03:37:00,
2013-08-28 23:47:00,77.2,75.0,30.02,SE,133,0.0,0.0,93,0.00,,,0.10,0,Wunderground v.1.15,2013-08-29 03:47:00,
2013-08-28 23:57:00,77.0,74.8,30.03,SE,133,0.0,0.0,93,0.00,,,0.10,0,Wunderground v.1.15,2013-08-29 03:57:00,